Погода в Ичалках

Россия / Нижегородская область     55°26′36″N   44°30′10″E
темп.,
°C
ветер,
м/с
пор.,
м/с
влажн.,
%
обл.,
%
осадки,
мм/ч
давл.,
гПа
погр.,
м
11 апреля, вс
вс1100:00+1с2397100 0.0 102766
03:000с2397100 0.0 1028154
06:000св239444 0.0 1029153
09:00+3св22857 0.0 1031221
12:00+6св2370100 0.0 1031377
15:00+7св2365100 0.0 1032350
18:00+5в2481100 0.0 103390
21:00+3в2382100 0.0 103445
12 апреля, пн
пн1200:00+3всв3581100 0.0 103487
03:00+2всв3882100 0.0 1035188
06:00+2в51285100 0.8 1035339
09:00+3всв51283100 1.2 1035349
12:00+4в51190100 0.8 1034315
15:00+8в6987100 0.8 1033414
18:00+7в5109595 0.0 1032300
21:00+6в369682 0.0 103298
13 апреля, вт
вт1300:00+6вюв3594100 0.0 103171
03:00+6юв349076 0.0 103046
06:00+7ююв358968 0.0 103078
09:00+13ююв596794 0.0 1029336
12:00+17ю684767 0.0 1028870
15:00+18ю6739100 0.0 10271356
18:00+15ююв375553 0.0 1026138
21:00+11ююв36695 0.0 102677
14 апреля, ср
ср1400:00+9ю397215 0.0 1026143
03:00+8ю35760 0.0 102556
06:00+8ю347483 0.0 102563
09:00+13ю4755100 0.0 1024299
12:00+18ю574290 0.0 1023825
15:00+19ю563765 0.0 10221372
18:00+16ююв4852100 0.0 1021179
21:00+12ю3562100 0.0 102170
15 апреля, чт
чт1500:00+10ююз346468 0.0 102056
03:00+9ююз3369100 0.0 101941
06:00+8ююз2374100 0.0 101935
09:00+13ююз465988 0.0 1018305
12:00+18юз4544100 0.0 1016944
15:00+17зюз4545100 0.0 10141127
18:00+15з1261100 0.0 101316
21:00+10с5892100 0.0 1013355